,,PressureMeas_1m,,PRMeasQMR101_1,,RHStat155_1m_1,,SRMeasQMS101R_1m,,TAStat155_1m_1,,GenWind_1,,GenWind_1,
2017-03-30, 07:00:06,VALID,919.617,VALID,0.0,VALID,97.02,VALID,37.945,VALID,18.851,VALID,113.0,VALID,0.013,
2017-03-30, 07:01:06,VALID,919.633,VALID,0.0,VALID,96.803,VALID,40.185,VALID,18.872,VALID,113.0,VALID,0.0,
2017-03-30, 07:02:06,VALID,919.637,VALID,0.0,VALID,96.62,VALID,42.495,VALID,18.9,VALID,113.0,VALID,0.0,
2017-03-30, 07:03:06,VALID,919.634,VALID,0.0,VALID,96.61,VALID,44.862,VALID,18.949,VALID,113.0,VALID,0.0,
2017-03-30, 07:04:06,VALID,919.631,VALID,0.0,VALID,96.549,VALID,47.19,VALID,18.98,VALID,112.0,VALID,0.0,
2017-03-30, 07:05:06,VALID,919.63,VALID,0.0,VALID,96.286,VALID,49.409,VALID,19.008,VALID,96.0,VALID,0.0,
2017-03-30, 07:06:06,VALID,919.635,VALID,0.0,VALID,96.383,VALID,51.43,VALID,19.056,VALID,90.0,VALID,0.0,
2017-03-30, 07:07:06,VALID,919.651,VALID,0.0,VALID,96.426,VALID,53.382,VALID,19.087,VALID,90.0,VALID,0.0,
2017-03-30, 07:08:06,VALID,919.673,VALID,0.0,VALID,96.255,VALID,55.352,VALID,19.082,VALID,89.0,VALID,0.0,
2017-03-30, 07:09:06,VALID,919.685,VALID,0.0,VALID,96.112,VALID,57.475,VALID,19.072,VALID,93.0,VALID,0.0,
2017-03-30, 07:10:06,VALID,919.717,VALID,0.0,VALID,95.844,VALID,59.705,VALID,19.072,VALID,106.0,VALID,0.0,
2017-03-30, 07:11:06,VALID,919.729,VALID,0.0,VALID,96.016,VALID,61.947,VALID,19.113,VALID,111.0,VALID,0.0,
2017-03-30, 07:12:06,VALID,919.748,VALID,0.0,VALID,95.616,VALID,64.251,VALID,19.117,VALID,109.0,VALID,0.396,
2017-03-30, 07:13:06,VALID,919.77,VALID,0.0,VALID,95.67,VALID,66.646,VALID,19.161,VALID,121.0,VALID,0.547,
2017-03-30, 07:14:06,VALID,919.788,VALID,0.0,VALID,95.72,VALID,69.148,VALID,19.194,VALID,109.0,VALID,0.43,
2017-03-30, 07:15:06,VALID,919.795,VALID,0.0,VALID,95.752,VALID,71.501,VALID,19.217,VALID,96.0,VALID,0.599,
2017-03-30, 07:16:06,VALID,919.8,VALID,0.0,VALID,95.512,VALID,73.623,VALID,19.21,VALID,91.0,VALID,0.655,
2017-03-30, 07:17:06,VALID,919.809,VALID,0.0,VALID,95.282,VALID,75.465,VALID,19.195,VALID,107.0,VALID,0.567,
2017-03-30, 07:18:06,VALID,919.812,VALID,0.0,VALID,95.301,VALID,76.91,VALID,19.207,VALID,108.0,VALID,0.546,
2017-03-30, 07:19:06,VALID,919.816,VALID,0.0,VALID,95.009,VALID,78.022,VALID,19.203,VALID,104.0,VALID,0.498,
2017-03-30, 07:20:06,VALID,919.82,VALID,0.0,VALID,95.48,VALID,78.87,VALID,19.248,VALID,101.0,VALID,0.22,
2017-03-30, 07:21:06,VALID,919.84,VALID,0.0,VALID,95.641,VALID,79.65,VALID,19.289,VALID,104.0,VALID,0.13,
2017-03-30, 07:22:06,VALID,919.853,VALID,0.0,VALID,95.886,VALID,80.466,VALID,19.345,VALID,94.0,VALID,0.146,
2017-03-30, 07:23:06,VALID,919.854,VALID,0.0,VALID,95.808,VALID,81.332,VALID,19.377,VALID,88.0,VALID,0.163,
2017-03-30, 07:24:06,VALID,919.866,VALID,0.0,VALID,95.201,VALID,82.237,VALID,19.366,VALID,95.0,VALID,0.317,
2017-03-30, 07:25:06,VALID,919.889,VALID,0.0,VALID,94.735,VALID,83.008,VALID,19.35,VALID,96.0,VALID,0.448,
2017-03-30, 07:26:06,VALID,919.895,VALID,0.0,VALID,94.686,VALID,83.657,VALID,19.354,VALID,100.0,VALID,0.464,
2017-03-30, 07:27:06,VALID,919.923,VALID,0.0,VALID,94.75,VALID,84.21,VALID,19.371,VALID,90.0,VALID,0.544,
2017-03-30, 07:28:06,VALID,919.948,VALID,0.0,VALID,95.425,VALID,84.769,VALID,19.42,VALID,82.0,VALID,0.558,
2017-03-30, 07:29:06,VALID,919.967,VALID,0.0,VALID,95.359,VALID,85.524,VALID,19.408,VALID,95.0,VALID,0.432,
2017-03-30, 07:30:06,VALID,920.003,VALID,0.0,VALID,95.028,VALID,86.433,VALID,19.38,VALID,105.0,VALID,0.619,
2017-03-30, 07:31:06,VALID,920.025,VALID,0.0,VALID,94.73,VALID,87.518,VALID,19.378,VALID,122.0,VALID,0.714,
2017-03-30, 07:32:06,VALID,920.029,VALID,0.0,VALID,94.768,VALID,88.747,VALID,19.41,VALID,114.0,VALID,0.58,
2017-03-30, 07:33:06,VALID,920.04,VALID,0.0,VALID,95.351,VALID,90.103,VALID,19.484,VALID,126.0,VALID,0.511,
2017-03-30, 07:34:06,VALID,920.05,VALID,0.0,VALID,95.398,VALID,91.579,VALID,19.532,VALID,124.0,VALID,0.523,
2017-03-30, 07:35:06,VALID,920.048,VALID,0.0,VALID,95.032,VALID,93.183,VALID,19.554,VALID,148.0,VALID,0.834,
2017-03-30, 07:36:06,VALID,920.056,VALID,0.0,VALID,95.299,VALID,94.891,VALID,19.557,VALID,164.0,VALID,0.905,
2017-03-30, 07:37:06,VALID,920.06,VALID,0.0,VALID,95.644,VALID,96.607,VALID,19.544,VALID,153.0,VALID,0.959,
2017-03-30, 07:38:06,VALID,920.065,VALID,0.0,VALID,95.403,VALID,98.305,VALID,19.469,VALID,152.0,VALID,0.859,
2017-03-30, 07:39:06,VALID,920.062,VALID,0.0,VALID,95.683,VALID,99.995,VALID,19.427,VALID,151.0,VALID,0.887,
2017-03-30, 07:40:06,VALID,920.064,VALID,0.0,VALID,95.553,VALID,101.649,VALID,19.382,VALID,148.0,VALID,0.735,
2017-03-30, 07:41:06,VALID,920.068,VALID,0.0,VALID,96.094,VALID,103.122,VALID,19.407,VALID,160.0,VALID,0.352,
2017-03-30, 07:42:06,VALID,920.077,VALID,0.0,VALID,96.427,VALID,104.557,VALID,19.442,VALID,145.0,VALID,0.536,
2017-03-30, 07:43:06,VALID,920.097,VALID,0.0,VALID,96.028,VALID,105.685,VALID,19.388,VALID,143.0,VALID,0.564,
2017-03-30, 07:44:06,VALID,920.114,VALID,0.0,VALID,96.371,VALID,106.52,VALID,19.415,VALID,149.0,VALID,0.37,
2017-03-30, 07:45:06,VALID,920.11,VALID,0.0,VALID,96.498,VALID,107.41,VALID,19.427,VALID,155.0,VALID,0.479,
2017-03-30, 07:46:06,VALID,920.116,VALID,0.0,VALID,96.282,VALID,108.421,VALID,19.416,VALID,151.0,VALID,0.321,
2017-03-30, 07:47:06,VALID,920.133,VALID,0.0,VALID,96.624,VALID,109.711,VALID,19.473,VALID,161.0,VALID,0.366,
2017-03-30, 07:48:06,VALID,920.135,VALID,0.0,VALID,96.562,VALID,111.414,VALID,19.504,VALID,156.0,VALID,0.297,
2017-03-30, 07:49:06,VALID,920.15,VALID,0.0,VALID,96.476,VALID,113.472,VALID,19.535,VALID,152.0,VALID,0.313,
2017-03-30, 07:50:06,VALID,920.165,VALID,0.0,VALID,96.092,VALID,115.891,VALID,19.552,VALID,170.0,VALID,0.361,
2017-03-30, 07:51:06,VALID,920.17,VALID,0.0,VALID,96.153,VALID,118.617,VALID,19.613,VALID,178.0,VALID,0.448,
2017-03-30, 07:52:06,VALID,920.191,VALID,0.0,VALID,95.703,VALID,121.564,VALID,19.641,VALID,167.0,VALID,0.555,
2017-03-30, 07:53:06,VALID,920.204,VALID,0.0,VALID,95.087,VALID,124.583,VALID,19.662,VALID,164.0,VALID,0.502,
2017-03-30, 07:54:06,VALID,920.209,VALID,0.0,VALID,95.107,VALID,127.42,VALID,19.72,VALID,161.0,VALID,0.533,
2017-03-30, 07:55:06,VALID,920.223,VALID,0.0,VALID,95.103,VALID,129.946,VALID,19.765,VALID,163.0,VALID,0.103,
2017-03-30, 07:56:06,VALID,920.232,VALID,0.0,VALID,95.518,VALID,132.128,VALID,19.827,VALID,158.0,VALID,0.102,
2017-03-30, 07:57:06,VALID,920.252,VALID,0.0,VALID,95.058,VALID,134.027,VALID,19.842,VALID,133.0,VALID,0.376,
2017-03-30, 07:58:06,VALID,920.286,VALID,0.0,VALID,93.819,VALID,135.655,VALID,19.815,VALID,136.0,VALID,0.403,
2017-03-30, 07:59:06,VALID,920.294,VALID,0.0,VALID,93.785,VALID,137.279,VALID,19.806,VALID,145.0,VALID,0.576,
2017-03-30, 08:00:06,VALID,920.325,VALID,0.0,VALID,93.941,VALID,139.081,VALID,19.764,VALID,145.0,VALID,0.732,
2017-03-30, 08:01:06,VALID,920.342,VALID,0.0,VALID,93.755,VALID,141.009,VALID,19.698,VALID,156.0,VALID,0.864,
2017-03-30, 08:02:06,VALID,920.362,VALID,0.0,VALID,93.983,VALID,143.177,VALID,19.677,VALID,148.0,VALID,0.752,
2017-03-30, 08:03:06,VALID,920.374,VALID,0.0,VALID,94.566,VALID,145.39,VALID,19.71,VALID,157.0,VALID,0.558,
2017-03-30, 08:04:06,VALID,920.385,VALID,0.0,VALID,94.377,VALID,147.639,VALID,19.744,VALID,155.0,VALID,0.58,
2017-03-30, 08:05:06,VALID,920.385,VALID,0.0,VALID,94.615,VALID,149.476,VALID,19.792,VALID,131.0,VALID,0.73,
2017-03-30, 08:06:06,VALID,920.395,VALID,0.0,VALID,94.607,VALID,151.092,VALID,19.826,VALID,145.0,VALID,0.698,
2017-03-30, 08:07:06,VALID,920.412,VALID,0.0,VALID,94.381,VALID,152.906,VALID,19.878,VALID,132.0,VALID,0.644,
2017-03-30, 08:08:06,VALID,920.409,VALID,0.0,VALID,92.96,VALID,155.096,VALID,19.93,VALID,100.0,VALID,0.92,
2017-03-30, 08:09:06,VALID,920.414,VALID,0.0,VALID,91.992,VALID,157.635,VALID,19.969,VALID,99.0,VALID,0.982,
2017-03-30, 08:10:06,VALID,920.432,VALID,0.0,VALID,90.36,VALID,160.545,VALID,19.964,VALID,109.0,VALID,0.966,
2017-03-30, 08:11:06,VALID,920.436,VALID,0.0,VALID,90.728,VALID,163.849,VALID,19.985,VALID,99.0,VALID,0.801,
2017-03-30, 08:12:06,VALID,920.458,VALID,0.0,VALID,91.112,VALID,167.546,VALID,20.028,VALID,110.0,VALID,0.912,
2017-03-30, 08:13:06,VALID,920.451,VALID,0.0,VALID,90.018,VALID,171.231,VALID,20.032,VALID,105.0,VALID,0.79,
2017-03-30, 08:14:06,VALID,920.477,VALID,0.0,VALID,90.463,VALID,175.111,VALID,20.069,VALID,107.0,VALID,0.841,
2017-03-30, 08:15:06,VALID,920.471,VALID,0.0,VALID,90.448,VALID,179.046,VALID,20.118,VALID,101.0,VALID,0.857,
2017-03-30, 08:16:06,VALID,920.482,VALID,0.0,VALID,91.753,VALID,183.298,VALID,20.201,VALID,97.0,VALID,0.694,
2017-03-30, 08:17:06,VALID,920.493,VALID,0.0,VALID,91.526,VALID,187.968,VALID,20.265,VALID,93.0,VALID,0.84,
2017-03-30, 08:18:06,VALID,920.506,VALID,0.0,VALID,89.936,VALID,193.144,VALID,20.278,VALID,100.0,VALID,1.322,
2017-03-30, 08:19:06,VALID,920.529,VALID,0.0,VALID,87.741,VALID,198.135,VALID,20.25,VALID,108.0,VALID,1.427,
2017-03-30, 08:20:06,VALID,920.549,VALID,0.0,VALID,88.086,VALID,202.101,VALID,20.246,VALID,110.0,VALID,1.276,
2017-03-30, 08:21:06,VALID,920.581,VALID,0.0,VALID,88.802,VALID,205.515,VALID,20.289,VALID,118.0,VALID,1.059,
2017-03-30, 08:22:06,VALID,920.609,VALID,0.0,VALID,87.848,VALID,208.587,VALID,20.321,VALID,119.0,VALID,1.4,
2017-03-30, 08:23:06,VALID,920.64,VALID,0.0,VALID,88.096,VALID,211.454,VALID,20.353,VALID,112.0,VALID,1.421,
2017-03-30, 08:24:06,VALID,920.665,VALID,0.0,VALID,88.14,VALID,213.684,VALID,20.367,VALID,103.0,VALID,1.21,
2017-03-30, 08:25:06,VALID,920.701,VALID,0.0,VALID,89.499,VALID,215.507,VALID,20.386,VALID,113.0,VALID,1.055,
2017-03-30, 08:26:06,VALID,920.722,VALID,0.0,VALID,90.626,VALID,217.128,VALID,20.45,VALID,121.0,VALID,1.196,
2017-03-30, 08:27:06,VALID,920.737,VALID,0.0,VALID,90.76,VALID,218.222,VALID,20.505,VALID,114.0,VALID,0.977,
2017-03-30, 08:28:06,VALID,920.747,VALID,0.0,VALID,89.456,VALID,218.482,VALID,20.513,VALID,113.0,VALID,1.138,
2017-03-30, 08:29:06,VALID,920.756,VALID,0.0,VALID,88.955,VALID,217.793,VALID,20.53,VALID,105.0,VALID,0.741,
2017-03-30, 08:30:06,VALID,920.754,VALID,0.0,VALID,88.975,VALID,216.312,VALID,20.558,VALID,105.0,VALID,0.881,
2017-03-30, 08:31:06,VALID,920.757,VALID,0.0,VALID,87.68,VALID,214.763,VALID,20.545,VALID,104.0,VALID,1.32,
2017-03-30, 08:32:06,VALID,920.769,VALID,0.0,VALID,87.483,VALID,213.357,VALID,20.524,VALID,100.0,VALID,1.071,
2017-03-30, 08:33:06,VALID,920.772,VALID,0.0,VALID,88.947,VALID,212.1,VALID,20.523,VALID,97.0,VALID,0.966,
2017-03-30, 08:34:06,VALID,920.782,VALID,0.0,VALID,88.178,VALID,211.081,VALID,20.523,VALID,107.0,VALID,1.09,
2017-03-30, 08:35:06,VALID,920.801,VALID,0.0,VALID,86.726,VALID,210.281,VALID,20.53,VALID,102.0,VALID,1.252,
2017-03-30, 08:36:06,VALID,920.817,VALID,0.0,VALID,86.564,VALID,210.071,VALID,20.549,VALID,103.0,VALID,1.021,
2017-03-30, 08:37:06,VALID,920.828,VALID,0.0,VALID,88.556,VALID,210.091,VALID,20.599,VALID,126.0,VALID,0.912,
2017-03-30, 08:38:06,VALID,920.844,VALID,0.0,VALID,87.942,VALID,210.161,VALID,20.676,VALID,133.0,VALID,1.064,
2017-03-30, 08:39:06,VALID,920.846,VALID,0.0,VALID,89.742,VALID,210.076,VALID,20.742,VALID,141.0,VALID,1.077,
2017-03-30, 08:40:06,VALID,920.849,VALID,0.0,VALID,90.038,VALID,210.255,VALID,20.761,VALID,154.0,VALID,0.892,
2017-03-30, 08:41:06,VALID,920.85,VALID,0.0,VALID,89.839,VALID,210.804,VALID,20.763,VALID,150.0,VALID,1.312,
2017-03-30, 08:42:06,VALID,920.851,VALID,0.0,VALID,88.793,VALID,212.013,VALID,20.71,VALID,150.0,VALID,1.42,
2017-03-30, 08:43:06,VALID,920.847,VALID,0.0,VALID,89.055,VALID,213.481,VALID,20.641,VALID,148.0,VALID,1.406,
2017-03-30, 08:44:06,VALID,920.852,VALID,0.0,VALID,89.541,VALID,214.561,VALID,20.605,VALID,152.0,VALID,1.129,
2017-03-30, 08:45:06,VALID,920.855,VALID,0.0,VALID,89.365,VALID,216.382,VALID,20.635,VALID,152.0,VALID,0.91,
2017-03-30, 08:46:06,VALID,920.855,VALID,0.0,VALID,89.402,VALID,218.48,VALID,20.716,VALID,138.0,VALID,0.631,
2017-03-30, 08:47:06,VALID,920.86,VALID,0.0,VALID,88.578,VALID,220.348,VALID,20.827,VALID,143.0,VALID,0.529,
2017-03-30, 08:48:06,VALID,920.861,VALID,0.0,VALID,86.593,VALID,222.023,VALID,20.926,VALID,142.0,VALID,0.69,
2017-03-30, 08:49:06,VALID,920.852,VALID,0.0,VALID,85.996,VALID,223.553,VALID,21.018,VALID,150.0,VALID,0.819,
2017-03-30, 08:50:06,VALID,920.847,VALID,0.0,VALID,85.897,VALID,225.1,VALID,21.09,VALID,128.0,VALID,0.836,
2017-03-30, 08:51:06,VALID,920.847,VALID,0.0,VALID,86.207,VALID,226.606,VALID,21.152,VALID,135.0,VALID,0.603,
2017-03-30, 08:52:06,VALID,920.85,VALID,0.0,VALID,86.842,VALID,228.405,VALID,21.228,VALID,150.0,VALID,0.465,
2017-03-30, 08:53:06,VALID,920.859,VALID,0.0,VALID,87.004,VALID,230.751,VALID,21.293,VALID,143.0,VALID,0.334,
2017-03-30, 08:54:06,VALID,920.88,VALID,0.0,VALID,87.582,VALID,234.441,VALID,21.344,VALID,131.0,VALID,0.197,
2017-03-30, 08:55:06,VALID,920.888,VALID,0.0,VALID,87.816,VALID,236.149,VALID,21.423,VALID,85.0,VALID,0.179,
2017-03-30, 08:56:06,VALID,920.899,VALID,0.0,VALID,88.61,VALID,236.906,VALID,21.513,VALID,57.0,VALID,0.807,
2017-03-30, 08:57:06,VALID,920.911,VALID,0.0,VALID,86.835,VALID,238.905,VALID,21.513,VALID,62.0,VALID,0.903,
2017-03-30, 08:58:06,VALID,920.943,VALID,0.0,VALID,85.534,VALID,242.014,VALID,21.454,VALID,70.0,VALID,0.807,
2017-03-30, 08:59:06,VALID,920.948,VALID,0.0,VALID,86.212,VALID,245.589,VALID,21.4,VALID,103.0,VALID,0.493,
2017-03-30, 09:00:06,VALID,920.963,VALID,0.0,VALID,86.558,VALID,249.052,VALID,21.418,VALID,123.0,VALID,0.5,
2017-03-30, 09:01:06,VALID,920.972,VALID,0.0,VALID,86.404,VALID,251.98,VALID,21.467,VALID,115.0,VALID,0.343,
2017-03-30, 09:02:06,VALID,921.004,VALID,0.0,VALID,86.426,VALID,254.192,VALID,21.556,VALID,148.0,VALID,0.412,
2017-03-30, 09:03:06,VALID,921.017,VALID,0.0,VALID,87.566,VALID,255.761,VALID,21.654,VALID,165.0,VALID,0.526,
2017-03-30, 09:04:06,VALID,921.021,VALID,0.0,VALID,86.989,VALID,258.16,VALID,21.727,VALID,166.0,VALID,0.445,
2017-03-30, 09:05:06,VALID,921.038,VALID,0.0,VALID,85.894,VALID,255.391,VALID,21.79,VALID,155.0,VALID,0.525,
2017-03-30, 09:06:06,VALID,921.059,VALID,0.0,VALID,84.346,VALID,251.188,VALID,21.771,VALID,141.0,VALID,0.587,
2017-03-30, 09:07:06,VALID,921.065,VALID,0.0,VALID,84.966,VALID,247.471,VALID,21.685,VALID,136.0,VALID,0.476,
2017-03-30, 09:08:06,VALID,921.087,VALID,0.0,VALID,85.393,VALID,244.292,VALID,21.668,VALID,142.0,VALID,0.33,
2017-03-30, 09:09:06,VALID,921.109,VALID,0.0,VALID,86.137,VALID,241.488,VALID,21.717,VALID,166.0,VALID,0.289,
2017-03-30, 09:10:06,VALID,921.121,VALID,0.0,VALID,84.382,VALID,239.216,VALID,21.778,VALID,135.0,VALID,0.331,
